Location: Unspecified
(0.0000°N, 0.0000°E)
Time: 03:04:58
(UTC+00:00)

Vanguard 2 Rocket - Pass Details

Date: 14 December 2018
Orbit: 554 x 3327 km, 32.9° (Epoch: 16 January)

Event Time Altitude Azimuth Distance (km) Brightness Sun altitude
Rises 00:53:53 0° 226° (SW) 6,083 11.2 -62.7°
Enters shadow 00:58:28 - 220° (SW) 4,730 10.6 -62.1°
Reaches altitude 10° 00:58:54 10° 219° (SW) 4,599 - -62.0°
Maximum altitude 01:09:31 41° 154° (SSE) 1,904 - -60.5°
Drops below altitude 10° 01:15:45 10° 85° (E) 2,722 - -59.5°
Sets 01:17:58 0° 77° (ENE) 3,425 - -59.2°
